Location: アルンシュタイン
(50.0000°N, 10.0000°E)
Time: 18:29:33
(UTC+02:00)

Transit 2A Rocket - All Passes

Search period start: 11 September 2024 00:00
Search period end: 21 September 2024 00:00
Orbit: 582 x 910 km, 66.7° (Epoch: 10 September)

Date Brightness Start Highest point End Pass type
(mag) Time Alt. Az. Time Alt. Az. Time Alt. Az.
11 Sep - 01:03:44 10° SSE 01:08:45 29° ESE 01:13:55 10° NE visible
11 Sep - 02:44:58 10° SW 02:50:55 67° NW 02:57:01 10° NE visible
11 Sep - 04:29:43 10° W 04:34:33 24° NNW 04:39:25 10° NNE visible
11 Sep - 06:15:39 10° NW 06:19:17 16° N 06:22:52 10° NE visible
11 Sep - 07:59:21 10° NNW 08:04:02 23° NNE 08:08:33 10° ENE daylight
11 Sep - 09:41:50 10° NNW 09:47:46 63° NE 09:53:15 10° SE daylight
11 Sep - 11:24:57 10° NW 11:29:54 29° WSW 11:34:30 10° SSW daylight
12 Sep - 00:20:54 10° SSE 00:24:50 19° ESE 00:28:50 10° ENE visible
12 Sep - 02:00:35 10° SSW 02:06:32 85° SE 02:12:40 10° NE visible
12 Sep - 03:44:29 10° W 03:49:46 30° NNW 03:55:06 10° NNE visible
12 Sep - 05:30:28 10° NW 05:34:15 17° N 05:38:01 10° NNE visible
12 Sep - 07:14:55 10° NNW 07:19:08 19° NNE 07:23:13 10° ENE daylight
12 Sep - 08:57:32 10° NNW 09:03:14 44° NE 09:08:34 10° ESE daylight
12 Sep - 10:40:16 10° NW 10:45:51 46° WSW 10:51:01 10° S daylight
12 Sep - 23:39:45 10° ESE 23:41:02 11° E 23:42:19 10° E visible
13 Sep - 01:16:30 10° SSW 01:22:17 56° ESE 01:28:14 10° NE visible
13 Sep - 02:59:25 10° WSW 03:05:05 41° NW 03:10:49 10° NNE visible
13 Sep - 04:45:06 10° WNW 04:49:16 19° NNW 04:53:24 10° NNE visible
13 Sep - 06:30:20 10° NNW 06:34:09 17° N 06:37:53 10° NE daylight
13 Sep - 08:13:14 10° NNW 08:18:35 32° NE 08:23:37 10° E daylight
13 Sep - 09:55:45 10° NW 10:01:40 73° WSW 10:07:05 10° SSE daylight
13 Sep - 11:40:17 10° WNW 11:43:05 14° WSW 11:45:48 10° SW daylight
14 Sep - 00:32:50 10° S 00:38:09 36° ESE 00:43:38 10° NE visible
14 Sep - 02:14:36 10° SW 02:20:31 57° NW 02:26:32 10° NNE visible
14 Sep - 03:59:42 10° WNW 04:04:19 22° NNW 04:08:57 10° NNE visible
14 Sep - 05:45:30 10° NW 05:49:07 16° N 05:52:41 10° NE visible
14 Sep - 07:28:55 10° NNW 07:33:47 25° NNE 07:38:27 10° E daylight
14 Sep - 09:11:22 10° NW 09:17:20 75° NE 09:22:48 10° SE daylight
14 Sep - 10:54:47 10° WNW 10:59:14 23° WSW 11:03:25 10° SSW daylight
14 Sep - 23:49:39 10° SSE 23:54:09 23° ESE 23:58:46 10° ENE visible
15 Sep - 01:30:04 10° SW 01:36:03 82° NW 01:42:12 10° NE visible
15 Sep - 03:14:22 10° W 03:19:29 27° NNW 03:24:36 10° NNE visible
15 Sep - 05:00:23 10° NW 05:04:04 16° N 05:07:42 10° NNE visible
15 Sep - 06:44:31 10° NNW 06:48:54 20° NNE 06:53:08 10° ENE daylight
15 Sep - 08:27:03 10° NNW 08:32:51 51° NE 08:38:13 10° ESE daylight
15 Sep - 10:09:55 10° NW 10:15:14 37° WSW 10:20:10 10° S daylight
15 Sep - 23:07:23 10° SE 23:10:16 14° ESE 23:13:12 10° ENE visible
16 Sep - 00:45:49 10° SSW 00:51:43 68° ESE 00:57:48 10° NE visible
16 Sep - 02:29:12 10° WSW 02:34:43 36° NW 02:40:17 10° NNE visible
16 Sep - 04:15:03 10° NW 04:19:02 18° NNW 04:22:58 10° NNE visible
16 Sep - 05:59:58 10° NNW 06:03:55 18° NNE 06:07:45 10° NE visible
16 Sep - 07:42:44 10° NNW 07:48:13 36° NE 07:53:22 10° ESE daylight
16 Sep - 09:25:19 10° NW 09:31:06 60° WSW 09:36:24 10° SSE daylight
16 Sep - 11:11:10 10° W 11:12:18 11° W 11:13:25 10° WSW daylight
17 Sep - 00:01:56 10° S 00:07:31 44° ESE 00:13:15 10° NE visible
17 Sep - 01:44:14 10° WSW 01:50:04 49° NW 01:55:59 10° NNE visible
17 Sep - 03:29:38 10° WNW 03:34:03 20° NNW 03:38:27 10° NNE visible
17 Sep - 05:15:14 10° NNW 05:18:53 16° N 05:22:28 10° NE visible
17 Sep - 06:58:24 10° NNW 07:03:28 27° NNE 07:08:16 10° E daylight
17 Sep - 08:40:52 10° NW 08:46:48 88° NE 08:52:15 10° SE daylight
17 Sep - 10:24:39 10° WNW 10:28:29 19° WSW 10:32:08 10° SSW daylight
17 Sep - 23:18:29 10° SSE 23:23:26 28° ESE 23:28:30 10° NE visible
18 Sep - 00:59:33 10° SW 01:05:33 70° NW 01:11:39 10° NE visible
18 Sep - 02:44:14 10° W 02:49:08 25° NNW 02:54:02 10° NNE visible
18 Sep - 04:30:13 10° NW 04:33:49 16° N 04:37:22 10° NE visible
18 Sep - 06:14:01 10° NNW 06:18:36 22° NNE 06:22:58 10° ENE visible
18 Sep - 07:56:30 10° NNW 08:02:22 60° NE 08:07:45 10° SE daylight
18 Sep - 09:39:34 10° NW 09:44:32 30° WSW 09:49:10 10° S daylight
18 Sep - 22:35:43 10° SE 22:39:29 18° ESE 22:43:19 10° ENE visible
19 Sep - 00:15:09 10° SSW 00:21:09 81° ESE 00:27:16 10° NE visible
19 Sep - 01:58:57 10° W 02:04:20 31° NW 02:09:42 10° NNE visible
19 Sep - 03:44:57 10° NW 03:48:45 17° N 03:52:31 10° NNE visible
19 Sep - 05:29:32 10° NNW 05:33:38 18° NNE 05:37:36 10° ENE visible
19 Sep - 07:12:10 10° NNW 07:17:47 41° NE 07:23:00 10° ESE daylight
19 Sep - 08:54:51 10° NW 09:00:27 49° WSW 09:05:35 10° S daylight
19 Sep - 23:31:05 10° SSW 23:36:52 53° ESE 23:42:46 10° NE visible
20 Sep - 01:13:53 10° WSW 01:19:36 42° NW 01:25:22 10° NNE visible
20 Sep - 02:59:31 10° WNW 03:03:44 19° NNW 03:07:54 10° NNE visible
20 Sep - 04:44:52 10° NNW 04:48:36 16° N 04:52:13 10° NE visible
20 Sep - 06:27:50 10° NNW 06:33:03 31° NNE 06:37:58 10° E visible
20 Sep - 08:10:20 10° NW 08:16:12 77° WSW 08:21:34 10° SSE daylight
20 Sep - 09:54:40 10° WNW 09:57:39 15° WSW 10:00:32 10° SW daylight
20 Sep - 22:47:25 10° S 22:52:42 34° ESE 22:58:07 10° NE visible
